SCOUT X-4 R/B, 721

Orbit data source: Space-Track

SCOUT X-4 R/B, 721 is space debris in LEO originally from a launch on Thu, 19 Dec 1963 UTC launched from the Air Force Western Test Range (AFWTR). Debris objects in space refer to the collection of defunct objects orbiting the Earth. Examples of debris include non-operational satellites, rocket bodies, and fragments generated from explosions, collisions, or faulty payload assembly.

Loading next visibility...
Identifier
721, 1963-053B
Orbit
LEO
Last TLE update
17 hours ago
Origin
Manufacturer
ABL
Mission
Spacecraft
Bus & Motor
ALTAIR, Unknown motor
Mass
68 kg wet, 33 kg dry
Launch date (UTC)
1963-12-19 (61 years ago)
Launch vehicle
Unknown
Launch site
Air Force Western Test Range (AFWTR)
Object type
Payload
Rocket body
Debris
Shape & HBR
Cyl, 1.5 m
Radar Cross Section
0.687 m², Medium (>0.1 m² and < 1m²)

Expand to show TLE details & history

TLE from 17 hours ago
0 SCOUT X-4 R/B
1 00721U 63053B   25128.52408345  .00000308  00000-0  17499-3 0  9990
2 00721  78.5991 150.0231 1088303 139.9360 228.7382 12.54848692799294
Epoch: 2025-05-08T12:34Z
Definitive object data (Epoch: 2025-05-08T12:34:40.81Z)
Latitude
-0.00004°
Longitude
94.75971°
Altitude
2,055.541 km
Speed
6.603 km/s
True Right ascension
10h 00m 05s
True Declination
0° 00' 00"
Sunlit
Object was in daylight at TLE epoch
Visualization TLE readout
Latitude
-70.24338°
Longitude
60.08896°
Altitude
2,162.387 km
Speed
6.522 km/s
Apparent Right ascension
03h 33m 42s
Apparent Declination
-65° 21' 53"
Sunlit
Object is in daylight
Visualization observer readout
Local Sidereal Time
13:28:04
Azimuth
204.858° SW
Elevation
-58.884°
Doppler factor
1
Orbital elements
Apogee altitude
2,292.796 km
Perigee altitude
590.714 km
Semi-major axis
7,819.892 km
Eccentricity
0.1088303
Inclination
78.5991°
RAAN
150.0231°
Arg. of periapsis
139.936°
True anomaly
220.16934°
Mean anomaly
228.7382°
Eccentric anomaly
224.37721°
Mean motion
3.13864 °/min
BSTAR
0.00017499
Orbital period
114.7 mins
Loading maneuver chart data...
Loading SW <> Apogee altitude chart data...
Loading historical data...
Loading historical data...
Loading historical data...
Loading historical data...
Loading historical data...
Loading historical data...
Loading historical data...

SCOUT X-4 R/B Visibility forecast

Observer location: undefined°, undefined°

Span
Click to sort rows by Start time (UTC) header in descending order
Start Az.
Max El. time (UTC)
Max El. Az.
Max El.
End time (UTC)
End Az.
5 mins2025-05-09 12:10:25.184Z21.475° NNE2025-05-09 12:13:25.184Z75.792° E20.616°2025-05-09 12:15:25.184Z111.525° ESE
4 mins2025-05-09 14:07:25.184Z296.341° NW2025-05-09 14:09:25.184Z260.74° W16.686°2025-05-09 14:11:25.184Z229.357° WSW
13 mins2025-05-10 01:02:25.184Z148.905° SSE2025-05-10 01:09:25.184Z95.147° ESE29.516°2025-05-10 01:15:25.184Z36.772° NE
15 mins2025-05-10 02:57:25.184Z215.168° SW2025-05-10 03:05:25.184Z281.142° WNW37.354°2025-05-10 03:12:25.184Z0.191° NNE
|